FW6820 Weather Reports


Display with metric or nautical units.
time (UTC)temp
F
wind
direction
speed
MPH
gust
MPH
rain 1hr
in
rain 24hr
in
rain mn
in
humidity
%
barometer
mb
20260831063042 84 132 8.0 16.0 0.00 0.00 0.00 79 1014.3
20260831061554 84 115 10.0 16.0 0.00 0.00 0.00 79 1014.3
20260831060049 84 162 8.0 17.0 0.00 0.00 0.00 80 1014.4
20260831054543 84 144 11.0 19.0 0.00 0.00 0.00 80 1014.3
20260831053042 85 142 10.0 17.0 0.00 0.00 0.00 80 1014.4
20260831051556 85 138 11.0 20.0 0.00 0.00 0.00 80 1014.4
20260831050045 85 130 10.0 21.0 0.00 0.00 0.00 79 1014.3
20260831044542 85 146 13.0 25.0 0.00 0.00 0.00 78 1014.3
20260831043042 85 140 9.0 20.0 0.00 0.00 0.00 76 1014.3
20260831041544 85 132 10.0 18.0 0.00 0.00 0.00 75 1014.0
20260831040043 85 139 8.0 18.0 0.00 0.00 0.00 74 1013.9
20260831034548 86 132 6.0 19.0 0.00 0.00 0.00 74 1013.8
20260831033044 86 130 13.0 24.0 0.00 0.00 0.00 73 1013.7
20260831031548 87 126 12.0 19.0 0.00 0.00 0.00 70 1013.5
20260831030045 87 76 7.0 16.0 0.00 0.00 0.00 69 1013.1
20260831024552 88 145 12.0 22.0 0.00 0.00 0.00 68 1012.8
20260831023052 88 140 11.0 23.0 0.00 0.00 0.00 67 1012.5
20260831021548 89 142 15.0 28.0 0.00 0.00 0.00 65 1012.4
20260831020050 89 115 13.0 25.0 0.00 0.00 0.00 65 1012.2
20260831014543 90 127 11.0 19.0 0.00 0.00 0.00 63 1011.9
20260831013106 91 114 13.0 27.0 0.00 0.00 0.00 61 1011.8
20260831011547 92 107 12.0 23.0 0.00 0.00 0.00 58 1011.9
20260831010056 93 128 14.0 24.0 0.00 0.00 0.00 57 1011.8
20260831004542 93 139 12.0 24.0 0.00 0.00 0.00 54 1011.5
20260831003043 94 158 12.0 24.0 0.00 0.00 0.00 52 1011.3
20260831001541 95 113 14.0 21.0 0.00 0.00 0.00 50 1011.0
20260831000044 96 159 13.0 23.0 0.00 0.00 0.00 50 1010.9
20260830234547 97 110 12.0 20.0 0.00 0.00 0.00 50 1010.8
20260830233055 97 165 11.0 18.0 0.00 0.00 0.00 49 1010.7
20260830231554 98 117 11.0 19.0 0.00 0.00 0.00 47 1010.7
20260830230051 99 92 7.0 24.0 0.00 0.00 0.00 47 1010.6
20260830224544 100 127 12.0 18.0 0.00 0.00 0.00 43 1010.4
20260830223110 100 131 10.0 20.0 0.00 0.00 0.00 43 1010.6
20260830221552 100 106 11.0 18.0 0.00 0.00 0.00 43 1010.4
20260830220052 100 126 10.0 19.0 0.00 0.00 0.00 43 1010.2
20260830214553 102 126 4.0 14.0 0.00 0.00 0.00 42 1010.3
20260830213053 102 136 5.0 16.0 0.00 0.00 0.00 42 1010.6
20260830211550 103 87 3.0 9.0 0.00 0.00 0.00 40 1010.7
20260830210054 102 131 7.0 18.0 0.00 0.00 0.00 40 1011.0
20260830204554 102 150 3.0 16.0 0.00 0.00 0.00 39 1011.3
20260830203043 101 118 7.0 15.0 0.00 0.00 0.00 41 1011.7
20260830201542 100 144 7.0 20.0 0.00 0.00 0.00 40 1012.0
20260830200052 101 132 9.0 15.0 0.00 0.00 0.00 40 1012.1
20260830194550 100 123 6.0 14.0 0.00 0.00 0.00 40 1012.4
20260830193044 100 130 7.0 21.0 0.00 0.00 0.00 41 1012.8
20260830191542 99 133 11.0 19.0 0.00 0.00 0.00 43 1013.2
20260830190120 98 109 8.0 18.0 0.00 0.00 0.00 43 1013.5
20260830184559 99 151 9.0 17.0 0.00 0.00 0.00 45 1013.7
20260830183051 98 142 6.0 19.0 0.00 0.00 0.00 47 1013.8
20260830181544 97 120 11.0 16.0 0.00 0.00 0.00 47 1014.1
20260830180057 96 173 8.0 18.0 0.00 0.00 0.00 50 1014.2
20260830174603 96 135 5.0 20.0 0.00 0.00 0.00 51 1014.5
20260830173055 95 146 9.0 16.0 0.00 0.00 0.00 53 1014.8
20260830171554 94 115 7.0 18.0 0.00 0.00 0.00 55 1015.1
20260830170052 94 142 7.0 18.0 0.00 0.00 0.00 56 1015.1
20260830164542 93 150 9.0 19.0 0.00 0.00 0.00 58 1015.3
20260830163045 92 132 4.0 17.0 0.00 0.00 0.00 61 1015.1
20260830161553 91 150 9.0 16.0 0.00 0.00 0.00 63 1015.4
20260830160051 90 101 7.0 17.0 0.00 0.00 0.00 65 1015.5
20260830154546 89 136 8.0 16.0 0.00 0.00 0.00 69 1015.5
20260830153044 88 120 6.0 19.0 0.00 0.00 0.00 70 1015.4
20260830151550 87 140 8.0 15.0 0.00 0.00 0.00 72 1015.3
20260830150045 86 121 8.0 16.0 0.00 0.00 0.00 75 1015.2
20260830144554 86 141 9.0 17.0 0.00 0.00 0.00 76 1015.2
20260830143104 84 131 8.0 15.0 0.00 0.00 0.00 80 1015.1
20260830141548 84 124 8.0 15.0 0.00 0.00 0.00 82 1015.0
20260830140047 83 132 8.0 13.0 0.00 0.00 0.00 83 1015.1
20260830134544 82 138 5.0 11.0 0.00 0.00 0.00 85 1014.8
20260830133054 81 109 4.0 12.0 0.00 0.00 0.00 85 1014.8
20260830131547 81 117 4.0 10.0 0.00 0.00 0.00 86 1014.7
20260830130045 81 130 3.0 8.0 0.00 0.00 0.00 86 1014.6
20260830124543 80 122 3.0 9.0 0.00 0.00 0.00 86 1014.6
20260830123049 80 133 2.0 9.0 0.00 0.00 0.00 86 1014.4
20260830121544 81 115 3.0 8.0 0.00 0.00 0.00 86 1014.3
20260830120046 81 125 3.0 10.0 0.00 0.00 0.00 86 1014.1
20260830114551 81 119 2.0 5.0 0.00 0.00 0.00 85 1013.9
20260830113046 81 123 1.0 10.0 0.00 0.00 0.00 85 1014.1
20260830111545 81 121 3.0 9.0 0.00 0.00 0.00 85 1014.1
20260830110041 81 126 2.0 7.0 0.00 0.00 0.00 84 1014.0
20260830104603 81 0 2.0 7.0 0.00 0.00 0.00 84 1014.0
20260830103045 82 118 0.0 7.0 0.00 0.00 0.00 83 1013.9
20260830101543 82 128 4.0 9.0 0.00 0.00 0.00 83 1014.0
20260830100042 82 134 5.0 10.0 0.00 0.00 0.00 83 1014.0
20260830094548 82 135 6.0 12.0 0.00 0.00 0.00 83 1013.9
20260830093044 82 174 6.0 12.0 0.00 0.00 0.00 83 1014.1
20260830091542 82 143 8.0 13.0 0.00 0.00 0.00 82 1014.2
20260830090051 82 138 10.0 14.0 0.00 0.00 0.00 82 1014.2
20260830084542 83 170 7.0 13.0 0.00 0.00 0.00 82 1014.3
20260830083101 83 153 6.0 12.0 0.00 0.00 0.00 81 1014.6
20260830081545 83 154 7.0 14.0 0.00 0.00 0.00 81 1014.5
20260830080044 83 143 9.0 15.0 0.00 0.00 0.00 80 1014.7
20260830074546 83 152 7.0 11.0 0.00 0.00 0.00 80 1014.7
20260830073042 83 142 7.0 12.0 0.00 0.00 0.00 80 1015.1
20260830071547 83 144 8.0 13.0 0.00 0.00 0.00 79 1015.2
20260830070043 84 170 7.0 14.0 0.00 0.00 0.00 79 1015.0
20260830064542 84 145 8.0 14.0 0.00 0.00 0.00 80 1015.1